CW0506 Weather Reports


Display with metric or nautical units.
time (UTC)temp
F
wind
direction
speed
MPH
gust
MPH
rain 1hr
in
rain 24hr
in
rain mn
in
humidity
%
barometer
mb
20260507063920 49 244 2.0 3.0 0.02 0.01 0.01 96 1010.0
20260507063417 49 90 1.0 6.0 0.05 0.01 0.01 96 1009.9
20260507062914 50 359 2.0 3.0 0.05 0.01 0.01 96 1009.8
20260507062411 50 45 2.0 5.0 0.02 0.00 0.00 96 1009.6
20260507061908 50 12 2.0 5.0 0.00 0.00 0.00 96 1009.3
20260507061406 50 55 0.0 2.0 0.00 0.00 0.00 96 1009.5
20260507060904 50 269 2.0 2.0 0.00 0.00 0.00 96 1009.4
20260507060400 50 12 2.0 3.0 0.00 0.00 0.00 96 1009.2
20260507055852 50 23 0.0 2.0 0.00 0.00 0.00 95 1009.1
20260507055347 50 73 3.0 3.0 0.00 0.00 0.00 95 1009.4
20260507054845 50 110 0.0 6.0 0.00 0.00 0.00 96 1009.4
20260507054340 50 108 2.0 3.0 0.00 0.00 0.00 96 1009.5
20260507053838 50 99 2.0 3.0 0.00 0.00 0.00 96 1009.7
20260507053335 50 23 2.0 3.0 0.00 0.00 0.00 97 1009.9
20260507052834 50 79 1.0 2.0 0.00 0.00 0.00 97 1010.0
20260507052330 50 337 0.0 4.0 0.00 0.00 0.00 97 1010.1
20260507051828 50 149 1.0 3.0 0.00 0.00 0.00 98 1010.0
20260507051326 50 67 1.0 4.0 0.00 0.00 0.00 99 1010.0
20260507050822 50 100 2.0 4.0 0.00 0.00 0.00 99 1009.7
20260507050319 50 97 2.0 4.0 0.00 0.00 0.00 99 1010.0
20260507045816 50 55 0.0 2.0 0.00 0.00 0.00 99 1010.1
20260507045312 51 33 0.0 1.0 0.00 0.00 0.00 99 1010.2
20260507044809 51 355 0.0 2.0 0.00 0.00 0.00 99 1010.3
20260507044306 51 150 1.0 2.0 0.00 0.00 0.00 99 1010.1
20260507043802 51 117 0.0 1.0 0.00 0.00 0.00 99 1010.1
20260507043259 51 171 3.0 4.0 0.00 0.00 0.00 99 1010.1
20260507042755 51 137 0.0 1.0 0.00 0.00 0.00 99 1010.3
20260507042250 51 80 0.0 1.0 0.00 0.00 0.00 99 1010.0
20260507041747 51 12 1.0 3.0 0.00 0.00 0.00 99 1010.0
20260507041243 51 330 0.0 1.0 0.00 0.00 0.00 99 1009.8
20260507040735 51 115 0.0 2.0 0.00 0.00 0.00 99 1009.8
20260507040231 51 121 0.0 1.0 0.00 0.00 0.00 99 1009.5
20260507035727 51 219 0.0 1.0 0.00 0.17 0.17 99 1009.7
20260507035223 51 137 0.0 0.0 0.00 0.17 0.17 99 1009.8
20260507034721 51 72 0.0 2.0 0.00 0.17 0.17 99 1009.4
20260507034218 51 105 0.0 1.0 0.00 0.17 0.17 99 1009.7
20260507033716 52 309 0.0 4.0 0.00 0.17 0.17 99 1009.7
20260507033213 51 302 0.0 2.0 0.00 0.17 0.17 99 1009.8
20260507032710 51 229 0.0 1.0 0.00 0.17 0.17 99 1009.5
20260507032206 51 230 0.0 4.0 0.00 0.17 0.17 99 1009.9
20260507031703 52 250 0.0 3.0 0.00 0.17 0.17 99 1009.5
20260507031200 52 62 0.0 6.0 0.00 0.17 0.17 99 1009.6
20260507030656 52 276 1.0 2.0 0.00 0.17 0.17 99 1009.7
20260507030154 52 15 0.0 4.0 0.00 0.17 0.17 99 1009.9
20260507025651 52 189 0.0 4.0 0.00 0.17 0.17 99 1009.7
20260507025148 52 249 0.0 4.0 0.00 0.17 0.17 99 1009.6
20260507024646 53 61 2.0 5.0 0.00 0.17 0.17 99 1009.5
20260507024143 53 317 2.0 5.0 0.00 0.17 0.17 99 1009.4
20260507023638 53 110 0.0 10.0 0.00 0.17 0.17 99 1009.5
20260507023136 53 356 3.0 3.0 0.00 0.17 0.17 99 1009.5
20260507022633 54 2 2.0 4.0 0.00 0.17 0.17 99 1009.4
20260507022128 54 204 0.0 4.0 0.00 0.17 0.17 99 1009.5
20260507021625 54 314 1.0 3.0 0.00 0.17 0.17 99 1009.4
20260507021120 54 92 2.0 4.0 0.02 0.17 0.17 99 1009.5
20260507020619 54 319 0.0 3.0 0.02 0.17 0.17 99 1009.4
20260507020115 54 282 2.0 2.0 0.02 0.17 0.17 99 1009.5
20260507015614 54 79 0.0 3.0 0.02 0.17 0.17 99 1009.4
20260507015111 54 78 3.0 5.0 0.02 0.17 0.17 99 1009.3
20260507014607 54 98 2.0 5.0 0.05 0.17 0.17 99 1009.3
20260507014103 55 249 1.0 4.0 0.07 0.16 0.16 99 1009.5
20260507013600 55 9 6.0 8.0 0.12 0.16 0.16 99 1009.3
20260507013057 56 53 3.0 9.0 0.05 0.15 0.15 99 1008.8
20260507012554 58 235 5.0 13.0 0.00 0.14 0.14 99 1008.6
20260507012049 59 48 0.0 3.0 0.00 0.14 0.14 99 1008.5
20260507011547 59 1 0.0 2.0 0.00 0.14 0.14 99 1008.5
20260507011038 59 100 1.0 2.0 0.00 0.14 0.14 99 1008.3
20260507010532 60 204 0.0 1.0 0.00 0.14 0.14 99 1008.2
20260507010029 60 220 1.0 1.0 0.00 0.14 0.14 99 1008.1
20260507005527 60 158 1.0 2.0 0.00 0.14 0.14 99 1008.0
20260507005023 60 49 0.0 2.0 0.00 0.14 0.14 99 1008.1
20260507004520 60 325 2.0 3.0 0.00 0.14 0.14 99 1007.9
20260507004018 60 170 1.0 2.0 0.00 0.14 0.14 99 1007.7
20260507003513 60 255 2.0 7.0 0.00 0.14 0.14 99 1007.8
20260507003008 60 305 5.0 5.0 0.00 0.14 0.14 99 1007.9
20260507002505 60 281 1.0 4.0 0.00 0.14 0.14 99 1007.8
20260507002001 60 114 1.0 2.0 0.00 0.14 0.14 99 1007.8
20260507001457 60 255 1.0 3.0 0.00 0.14 0.14 99 1007.8
20260507000955 60 249 0.0 2.0 0.00 0.14 0.14 99 1007.7
20260507000451 60 150 0.0 2.0 0.00 0.14 0.14 99 1007.7
20260506235946 60 264 0.0 3.0 0.00 0.14 0.14 99 1007.9
20260506235444 60 62 0.0 2.0 0.00 0.14 0.14 99 1007.8
20260506234940 60 333 3.0 4.0 0.00 0.14 0.14 99 1007.8
20260506234437 60 328 2.0 5.0 0.00 0.14 0.14 99 1007.8
20260506233935 60 228 0.0 3.0 0.00 0.14 0.14 99 1008.0
20260506233431 60 269 2.0 3.0 0.00 0.14 0.14 99 1007.8
20260506232928 60 230 2.0 3.0 0.00 0.14 0.14 99 1007.6
20260506232424 60 182 0.0 4.0 0.00 0.14 0.14 99 1007.7
20260506231920 60 219 0.0 2.0 0.00 0.14 0.14 99 1007.8
20260506231418 60 236 2.0 2.0 0.00 0.14 0.14 99 1007.7
20260506230915 60 272 1.0 3.0 0.00 0.14 0.14 99 1007.7
20260506230411 60 184 1.0 2.0 0.00 0.14 0.14 99 1007.4
20260506225908 60 305 0.0 2.0 0.00 0.14 0.14 99 1007.6
20260506225405 60 196 1.0 3.0 0.00 0.14 0.14 99 1007.5
20260506224902 60 247 0.0 3.0 0.00 0.14 0.14 99 1007.7
20260506224359 60 265 1.0 3.0 0.00 0.14 0.14 99 1007.6
20260506223855 60 328 0.0 6.0 0.00 0.14 0.14 99 1007.3
20260506223351 60 48 1.0 8.0 0.00 0.14 0.14 99 1007.6
20260506222848 60 295 2.0 5.0 0.00 0.14 0.14 99 1007.5
20260506222344 60 299 1.0 4.0 0.00 0.14 0.14 99 1007.4
20260506221842 60 210 1.0 3.0 0.00 0.14 0.14 99 1007.5
20260506221339 60 275 0.0 4.0 0.02 0.14 0.14 99 1007.4
20260506220836 60 258 1.0 4.0 0.02 0.14 0.14 99 1007.4
20260506220332 60 252 3.0 4.0 0.00 0.13 0.13 99 1007.4
20260506215829 60 254 1.0 3.0 0.00 0.13 0.13 99 1007.6
20260506215324 60 318 1.0 2.0 0.02 0.13 0.13 99 1007.4
20260506214820 60 315 2.0 3.0 0.02 0.13 0.13 99 1007.7
20260506214317 60 308 0.0 2.0 0.02 0.13 0.13 99 1007.6
20260506213816 60 332 2.0 3.0 0.09 0.13 0.13 99 1007.5
20260506213312 60 275 3.0 4.0 0.12 0.13 0.13 99 1007.4
20260506212810 59 269 0.0 4.0 0.07 0.11 0.11 99 1007.4
20260506212307 60 155 0.0 1.0 0.02 0.11 0.11 99 1007.4
20260506211801 60 347 0.0 3.0 0.00 0.10 0.10 99 1007.6
20260506211257 60 241 2.0 7.0 0.00 0.10 0.10 99 1007.5
20260506210754 60 297 3.0 5.0 0.02 0.10 0.10 99 1007.4
20260506210251 60 75 0.0 2.0 0.02 0.10 0.10 99 1007.4
20260506205748 60 249 1.0 6.0 0.00 0.10 0.10 99 1007.5
20260506205244 60 266 0.0 4.0 0.00 0.10 0.10 99 1007.5
20260506204741 60 349 1.0 4.0 0.00 0.10 0.10 99 1007.7
20260506204238 60 254 0.0 3.0 0.00 0.10 0.10 99 1007.9
20260506203736 60 306 2.0 5.0 0.00 0.10 0.10 99 1007.8
20260506203233 60 185 1.0 3.0 0.02 0.10 0.10 99 1007.7
20260506202731 60 303 2.0 7.0 0.02 0.09 0.09 99 1007.7
20260506202227 60 242 2.0 5.0 0.05 0.09 0.09 99 1007.8
20260506201724 60 278 2.0 5.0 0.07 0.09 0.09 99 1007.8
20260506201220 60 296 5.0 8.0 0.07 0.09 0.09 99 1007.9
20260506200717 60 252 1.0 4.0 0.05 0.08 0.08 99 1008.0
20260506200209 59 224 2.0 7.0 0.05 0.07 0.07 99 1007.9
20260506195705 60 277 2.0 4.0 0.05 0.07 0.07 99 1008.1
20260506195201 60 238 2.0 4.0 0.02 0.07 0.07 99 1008.2
20260506194659 60 330 2.0 10.0 0.00 0.06 0.06 98 1007.9
20260506194155 60 327 5.0 8.0 0.00 0.06 0.06 99 1008.2
20260506193653 60 271 2.0 4.0 0.00 0.06 0.06 99 1008.1
20260506193149 60 253 2.0 2.0 0.00 0.06 0.06 99 1008.2
20260506192646 60 274 0.0 5.0 0.00 0.06 0.06 99 1008.3
20260506192142 59 279 5.0 6.0 0.00 0.06 0.06 99 1008.2
20260506191639 59 240 2.0 5.0 0.00 0.06 0.06 99 1008.2
20260506191135 59 315 2.0 7.0 0.02 0.06 0.06 98 1008.6
20260506190633 59 249 2.0 7.0 0.02 0.06 0.06 98 1008.5
20260506190130 59 262 3.0 7.0 0.00 0.06 0.06 98 1008.5
20260506185627 59 251 4.0 12.0 0.00 0.06 0.06 98 1008.6
20260506185123 59 175 0.0 4.0 0.00 0.06 0.06 98 1008.6
20260506184620 59 289 3.0 9.0 0.00 0.06 0.06 98 1008.7
20260506184117 59 264 4.0 13.0 0.00 0.06 0.06 98 1008.6
20260506183614 59 265 3.0 9.0 0.00 0.06 0.06 98 1008.8
20260506183110 59 278 4.0 10.0 0.02 0.06 0.06 98 1009.0
20260506182608 59 266 5.0 11.0 0.02 0.06 0.06 98 1008.9
20260506182105 59 76 2.0 4.0 0.02 0.06 0.06 98 1008.9
20260506181603 59 238 3.0 4.0 0.02 0.06 0.06 98 1009.0
20260506181059 59 340 5.0 9.0 0.00 0.05 0.05 97 1008.9
20260506180556 59 296 4.0 11.0 0.02 0.05 0.05 97 1008.7
20260506180053 60 285 6.0 10.0 0.02 0.05 0.05 97 1008.6
20260506175549 60 59 0.0 7.0 0.02 0.05 0.05 97 1008.8
20260506175045 60 269 2.0 7.0 0.05 0.05 0.05 97 1009.0
20260506174544 60 275 1.0 6.0 0.02 0.04 0.04 97 1008.6
20260506174039 61 324 3.0 5.0 0.05 0.04 0.04 96 1008.8
20260506173538 61 312 4.0 10.0 0.07 0.04 0.04 95 1008.9
20260506173034 61 287 2.0 11.0 0.07 0.03 0.03 95 1009.1
20260506172532 61 187 0.0 8.0 0.07 0.02 0.02 94 1009.2
20260506172028 62 275 2.0 8.0 0.07 0.02 0.02 93 1009.4
20260506171525 62 284 1.0 5.0 0.05 0.01 0.01 92 1009.5
20260506171023 62 300 4.0 9.0 0.05 0.01 0.01 90 1009.7
20260506170520 63 286 3.0 6.0 0.02 0.00 0.00 89 1009.8
20260506170012 64 226 6.0 8.0 0.00 0.00 0.00 86 1010.0
20260506165510 64 298 4.0 8.0 0.00 0.00 0.00 84 1009.9
20260506165006 65 315 1.0 10.0 0.00 0.00 0.00 84 1009.8
20260506164503 65 265 3.0 9.0 0.00 0.00 0.00 83 1009.6
20260506164000 66 285 4.0 7.0 0.00 0.00 0.00 82 1010.0
20260506163454 66 265 4.0 9.0 0.00 0.00 0.00 81 1009.9
20260506162949 66 320 3.0 9.0 0.00 0.00 0.00 81 1009.8
20260506162447 67 299 5.0 13.0 0.00 0.00 0.00 78 1009.7
20260506161939 67 287 2.0 8.0 0.00 0.00 0.00 79 1009.8
20260506161437 68 307 6.0 13.0 0.00 0.00 0.00 77 1009.5
20260506160929 67 197 0.0 11.0 0.00 0.00 0.00 77 1009.7
20260506160426 68 257 10.0 13.0 0.00 0.00 0.00 76 1009.8
20260506155923 68 280 6.0 14.0 0.00 0.00 0.00 75 1009.9
20260506155420 68 295 3.0 14.0 0.00 0.00 0.00 75 1009.9
20260506153542 68 317 11.0 11.0 0.00 0.00 0.00 75 1010.3
20260506153040 68 289 9.0 11.0 0.00 0.00 0.00 75 1010.1
20260506152537 68 263 6.0 12.0 0.00 0.00 0.00 75 1010.2
20260506152035 68 339 3.0 11.0 0.00 0.00 0.00 75 1010.2
20260506151532 68 295 7.0 9.0 0.00 0.00 0.00 76 1010.3
20260506151024 67 282 6.0 10.0 0.00 0.00 0.00 76 1010.0
20260506150520 68 299 8.0 10.0 0.00 0.00 0.00 75 1010.5
20260506150017 68 310 3.0 13.0 0.00 0.00 0.00 75 1010.3
20260506145514 68 268 2.0 9.0 0.00 0.00 0.00 75 1010.1
20260506145011 67 303 1.0 9.0 0.00 0.00 0.00 77 1010.3
20260506144508 67 84 1.0 12.0 0.00 0.00 0.00 77 1010.2
20260506144005 67 255 4.0 9.0 0.00 0.00 0.00 77 1010.3
20260506143503 67 264 5.0 11.0 0.00 0.00 0.00 77 1010.5
20260506143001 67 282 5.0 13.0 0.00 0.00 0.00 77 1010.6
20260506142458 67 285 1.0 9.0 0.00 0.00 0.00 77 1010.5
20260506141956 67 305 2.0 4.0 0.00 0.00 0.00 79 1010.5
20260506141454 67 228 2.0 9.0 0.00 0.00 0.00 77 1010.5
20260506140952 68 302 1.0 4.0 0.00 0.00 0.00 76 1010.3
20260506140449 66 11 1.0 9.0 0.00 0.00 0.00 79 1010.2
20260506135945 65 263 2.0 6.0 0.00 0.00 0.00 80 1010.3
20260506135443 64 2 1.0 10.0 0.00 0.00 0.00 83 1010.5
20260506134938 65 353 2.0 9.0 0.00 0.00 0.00 83 1010.6
20260506134435 64 255 4.0 7.0 0.00 0.00 0.00 83 1010.5
20260506133932 64 254 2.0 8.0 0.00 0.00 0.00 84 1010.3
20260506133429 63 177 0.0 3.0 0.00 0.00 0.00 85 1010.4
20260506132926 63 294 4.0 10.0 0.00 0.00 0.00 84 1010.4
20260506132423 63 315 2.0 6.0 0.00 0.00 0.00 85 1010.3
20260506131920 63 249 2.0 5.0 0.00 0.00 0.00 85 1010.4
20260506131416 63 346 0.0 6.0 0.00 0.00 0.00 86 1010.5
20260506130914 62 198 2.0 6.0 0.00 0.00 0.00 86 1010.4
20260506130410 62 231 1.0 3.0 0.00 0.00 0.00 87 1010.5
20260506125908 61 224 1.0 5.0 0.00 0.00 0.00 88 1010.8
20260506125406 61 303 1.0 4.0 0.00 0.00 0.00 88 1010.7
20260506124904 61 283 4.0 7.0 0.00 0.00 0.00 88 1010.6
20260506124401 61 312 6.0 9.0 0.00 0.00 0.00 88 1010.8
20260506123859 61 273 3.0 5.0 0.00 0.00 0.00 88 1011.0
20260506123357 61 257 3.0 5.0 0.00 0.00 0.00 88 1011.2
20260506122854 61 295 4.0 9.0 0.00 0.00 0.00 88 1011.3
20260506122350 61 35 3.0 5.0 0.00 0.00 0.00 89 1011.2
20260506121849 61 37 3.0 8.0 0.00 0.00 0.00 89 1011.2
20260506121346 60 273 5.0 7.0 0.00 0.00 0.00 89 1011.0
20260506120843 61 352 10.0 15.0 0.00 0.00 0.00 89 1011.2
20260506120340 60 296 2.0 6.0 0.00 0.00 0.00 90 1011.3
20260506115837 60 298 2.0 4.0 0.00 0.00 0.00 91 1011.0
20260506115336 60 172 1.0 5.0 0.00 0.00 0.00 91 1011.2
20260506114834 60 105 1.0 6.0 0.00 0.00 0.00 90 1011.0
20260506114331 60 265 1.0 9.0 0.00 0.00 0.00 91 1011.0
20260506113830 59 243 2.0 5.0 0.00 0.00 0.00 92 1011.0
20260506113326 59 237 1.0 8.0 0.00 0.00 0.00 92 1011.3
20260506112823 58 312 0.0 1.0 0.00 0.00 0.00 93 1011.3
20260506112320 58 29 0.0 3.0 0.00 0.00 0.00 93 1011.0
20260506111818 58 156 0.0 2.0 0.00 0.00 0.00 94 1011.2
20260506111316 57 85 2.0 3.0 0.00 0.00 0.00 95 1011.0
20260506110813 57 98 2.0 5.0 0.00 0.00 0.00 97 1011.2
20260506110310 56 238 2.0 2.0 0.00 0.00 0.00 97 1011.4
20260506105806 56 51 3.0 4.0 0.00 0.00 0.00 98 1011.2
20260506105305 55 214 0.0 2.0 0.00 0.00 0.00 98 1011.2
20260506104801 55 113 0.0 2.0 0.00 0.00 0.00 98 1011.4
20260506104258 55 150 0.0 2.0 0.00 0.00 0.00 98 1011.2
20260506103756 55 125 0.0 2.0 0.00 0.00 0.00 98 1011.0
20260506103253 55 146 2.0 3.0 0.00 0.00 0.00 98 1011.3
20260506102750 55 341 1.0 2.0 0.00 0.00 0.00 98 1011.4
20260506102248 55 155 0.0 2.0 0.00 0.00 0.00 98 1011.3
20260506101745 55 137 0.0 1.0 0.00 0.00 0.00 98 1011.4
20260506101241 55 132 0.0 2.0 0.00 0.00 0.00 98 1011.0
20260506100740 54 105 0.0 2.0 0.00 0.00 0.00 98 1011.0
20260506100237 54 73 0.0 2.0 0.00 0.00 0.00 97 1010.9
20260506095736 54 111 1.0 3.0 0.00 0.00 0.00 97 1011.0
20260506095232 55 150 2.0 2.0 0.00 0.00 0.00 97 1011.2
20260506094729 55 185 1.0 3.0 0.00 0.00 0.00 97 1011.2
20260506094227 55 146 3.0 3.0 0.00 0.00 0.00 97 1010.8
20260506093726 55 144 0.0 1.0 0.00 0.00 0.00 97 1011.0
20260506093222 55 138 2.0 2.0 0.00 0.00 0.00 96 1010.9
20260506092720 55 101 0.0 3.0 0.00 0.00 0.00 96 1011.0
20260506092218 55 154 2.0 3.0 0.00 0.00 0.00 96 1010.8
20260506091715 55 115 1.0 2.0 0.00 0.00 0.00 96 1010.8
20260506091212 55 145 1.0 2.0 0.00 0.00 0.00 96 1010.9
20260506090710 55 194 1.0 3.0 0.00 0.00 0.00 95 1010.9
20260506090206 55 149 0.0 3.0 0.00 0.00 0.00 95 1010.9
20260506085704 55 125 0.0 3.0 0.00 0.00 0.00 95 1011.2
20260506085159 55 163 0.0 3.0 0.00 0.00 0.00 95 1010.9
20260506084656 56 121 0.0 3.0 0.00 0.00 0.00 95 1011.0
20260506084153 56 132 2.0 3.0 0.00 0.00 0.00 94 1010.8
20260506083650 56 137 0.0 2.0 0.00 0.00 0.00 94 1010.8
20260506083148 56 161 1.0 4.0 0.00 0.00 0.00 94 1011.0
20260506082644 56 117 0.0 2.0 0.00 0.00 0.00 93 1010.9
20260506082139 56 113 0.0 3.0 0.00 0.00 0.00 93 1011.2
20260506081638 57 148 1.0 2.0 0.00 0.00 0.00 93 1011.3
20260506081135 57 158 1.0 5.0 0.00 0.00 0.00 93 1010.9
20260506080632 57 100 0.0 5.0 0.00 0.00 0.00 93 1011.0
20260506080129 56 189 1.0 2.0 0.00 0.00 0.00 93 1010.9
20260506073113 57 133 2.0 2.0 0.00 0.00 0.00 92 1011.2
20260506072609 57 116 2.0 3.0 0.00 0.00 0.00 91 1010.9
20260506072108 57 166 0.0 2.0 0.00 0.00 0.00 90 1011.0
20260506071605 57 152 2.0 3.0 0.00 0.00 0.00 90 1011.0
20260506071102 57 106 1.0 3.0 0.00 0.00 0.00 90 1011.2
20260506070559 57 146 2.0 2.0 0.00 0.00 0.00 89 1011.0